Location: La Bastide
(43.1661°N, 1.2755°E)
Time: 21:53:17
(UTC+00:00)

USA 215 - Pass Details

Date: 13 December 2025
Orbit: 1098 x 1109 km, 123.0° (Epoch: 10 January)

Event Time Altitude Azimuth Distance (km) Brightness Sun altitude
Exits shadow 17:12:07 - 49° (NE) 3,024 5.0 -9.3°
Reaches altitude 10° 17:12:18 10° 48° (NE) 2,966 4.9 -9.3°
Maximum altitude 17:17:33 27° 354° (N) 1,982 4.5 -10.2°
Drops below altitude 10° 17:22:48 10° 300° (WNW) 2,959 6.1 -11.1°
Sets 17:25:40 0° 289° (WNW) 3,915 7.0 -11.6°
